This demonstration page uses our WeatherBlox Daily Observations layout. Learn more.

Hourly Observations for December 22, 2015

Temp ( °F °C ) Dew Point ( °F °C ) Humidity (%) Winds ( mph kmh ) Pressure ( in mb ) Visibility ( mi km ) Precip ( " mm )
12:15 am 00:15 Clear 30 -1.1 24 -4.6 77 77 S 7 11 29.83 1010 10 16.0934 0 0
12:35 am 00:35 Clear 28 -2.2 23 -5.1 81 81 SSE 7 11 29.83 1010 10 16.0934 0 0
12:55 am 00:55 Clear 29 -1.8 23 -5.2 78 78 SSE 7 11 29.8 1009 10 16.0934 0 0
1:15 am 01:15 Clear 29 -1.9 23 -5 80 80 SE 7 11 29.8 1009 10 16.0934 0 0
1:35 am 01:35 Clear 29 -1.5 24 -4.4 81 81 SE 7 11 29.77 1008 10 16.0934 0 0
1:55 am 01:55 Clear 29 -1.4 26 -3.5 86 86 SSE 7 11 29.77 1008 10 16.0934 0 0
2:15 am 02:15 Clear 32 0 29 -1.5 90 90 SSE 8 13 29.71 1006 10 16.0934 0 0
2:35 am 02:35 Clear 32 0.1 30 -1.1 92 92 SSE 12 19 29.71 1006 10 16.0934 0 0
2:55 am 02:55 Clear 33 0.8 30 -1 88 88 SSE 13 20 29.68 1005 10 16.0934 0 0
3:15 am 03:15 Clear 34 1.2 30 -0.9 86 86 SSE 12 19 29.68 1005 10 16.0934 0 0
3:35 am 03:35 Clear 34 1.2 30 -1 85 85 SSE 12 19 29.68 1005 10 16.0934 0 0
3:55 am 03:55 Clear 34 0.9 30 -1.2 86 86 SSE 8 13 29.65 1004 10 16.0934 0 0
4:15 am 04:15 Clear 33 0.7 30 -1.1 88 88 S 10 17 29.65 1004 10 16.0934 0 0
4:35 am 04:35 Clear 33 0.5 30 -1.2 89 89 SSE 9 15 29.65 1004 10 16.0934 0 0
4:55 am 04:55 Clear 33 0.5 30 -1.1 89 89 S 10 17 29.62 1003 10 16.0934 0 0
5:15 am 05:15 Clear 32 0.1 30 -1.2 91 91 SSE 12 19 29.62 1003 10 16.0934 0 0
5:35 am 05:35 Clear 32 0.1 30 -1.2 91 91 SSE 13 20 29.62 1003 10 16.0934 0 0
5:55 am 05:55 Clear 32 0.2 30 -1.1 91 91 SSE 12 19 29.59 1002 10 16.0934 0 0
6:15 am 06:15 Clear 32 0.2 30 -1.1 91 91 SSE 10 17 29.59 1002 10 16.0934 0 0
6:35 am 06:35 Clear 33 0.3 30 -1.2 90 90 SSE 12 19 29.59 1002 10 16.0934 0 0
6:55 am 06:55 Clear 32 0.2 29 -1.5 89 89 SSE 9 15 29.56 1001 10 16.0934 0 0
7:15 am 07:15 Clear 32 0.1 29 -1.7 88 88 SSE 13 20 29.56 1001 10 16.0934 0 0
7:35 am 07:35 Clear 32 0.1 29 -1.8 87 87 S 12 19 29.56 1001 10 16.0934 0 0
7:55 am 07:55 Clear 32 0.1 28 -2 86 86 S 15 24 29.53 1000 10 16.0934 0 0
8:15 am 08:15 Sunny 32 -0.1 28 -2.1 87 87 S 12 19 29.53 1000 10 16.0934 0 0
8:35 am 08:35 Sunny 32 0 28 -2 87 87 SSE 15 24 29.53 1000 10 16.0934 0 0
8:55 am 08:55 Sunny 33 0.5 29 -1.5 87 87 SSE 14 22 29.5 999 10 16.0934 0 0
9:15 am 09:15 Sunny 33 0.8 30 -1.3 86 86 SSE 13 20 29.47 998 10 16.0934 0 0
9:35 am 09:35 Sunny 35 1.5 30 -1 84 84 S 12 19 29.5 999 10 16.0934 0 0
9:55 am 09:55 Sunny 35 1.6 30 -0.9 84 84 SSE 14 22 29.5 999 10 16.0934 0 0
10:15 am 10:15 Sunny 35 1.5 31 -0.7 85 85 S 13 20 29.5 999 10 16.0934 0 0
10:35 am 10:35 Sunny 36 2.2 32 -0.1 85 85 S 14 22 29.5 999 10 16.0934 0 0
10:55 am 10:55 Sunny 38 3.1 32 0.1 81 81 S 14 22 29.5 999 10 16.0934 0 0
11:15 am 11:15 Sunny 39 3.7 32 0.2 78 78 SSW 16 26 29.44 997 10 16.0934 0 0
11:35 am 11:35 Sunny 39 4.1 33 0.5 78 78 SSW 13 20 29.44 997 10 16.0934 0 0
11:55 am 11:55 Sunny 40 4.5 33 0.4 75 75 S 14 22 29.44 997 10 16.0934 0 0
12:15 pm 12:15 Sunny 40 4.7 33 0.5 74 74 SSW 9 15 29.44 997 10 16.0934 0 0
12:35 pm 12:35 Sunny 40 4.6 33 0.3 74 74 SSW 9 15 29.41 996 10 16.0934 0 0
12:55 pm 12:55 Sunny 41 4.8 33 0.5 74 74 S 8 13 29.41 996 10 16.0934 0 0
1:15 pm 13:15 Sunny 41 5.1 33 0.5 72 72 SSW 8 13 29.41 996 10 16.0934 0 0
1:35 pm 13:35 Sunny 41 5.2 33 0.4 71 71 SW 5 7 29.38 995 10 16.0934 0 0
1:55 pm 13:55 Sunny 42 5.4 33 0.5 71 71 S 8 13 29.38 995 10 16.0934 0 0
2:15 pm 14:15 Sunny 42 5.3 33 0.5 71 71 Calm 29.38 995 10 16.0934 0 0
2:35 pm 14:35 Sunny 42 5.5 33 0.6 71 71 W 3 6 29.38 995 10 16.0934 0 0
2:55 pm 14:55 Sunny 42 5.3 33 0.6 72 72 NW 7 11 29.38 995 10 16.0934 0 0
3:15 pm 15:15 Sunny 41 5.1 33 0.8 74 74 NW 5 7 29.38 995 10 16.0934 0 0
3:35 pm 15:35 Sunny 40 4.7 34 0.9 77 77 SE 3 6 29.38 995 10 16.0934 0 0
3:55 pm 15:55 Sunny 40 4.5 34 1 78 78 SSE 3 6 29.41 996 10 16.0934 0 0
4:15 pm 16:15 Sunny 40 4.4 34 1 79 79 Calm 29.38 995 10 16.0934 0 0
4:35 pm 16:35 Sunny 40 4.3 34 1 79 79 Calm 29.38 995 10 16.0934 0 0
4:55 pm 16:55 Sunny 37 3 32 0.1 81 81 Calm 29.41 996 10 16.0934 0 0
5:15 pm 17:15 Clear 35 1.9 32 -0.1 87 87 Calm 29.41 996 10 16.0934 0 0
5:35 pm 17:35 Clear 34 1 31 -0.5 90 90 Calm 29.41 996 10 16.0934 0 0
5:55 pm 17:55 Clear 33 0.6 31 -0.7 91 91 E 3 6 29.41 996 10 16.0934 0 0
6:15 pm 18:15 Clear 34 1 31 -0.3 91 91 E 3 6 29.41 996 10 16.0934 0 0
6:35 pm 18:35 Clear 34 1.3 32 0 91 91 E 6 9 29.41 996 10 16.0934 0 0
6:55 pm 18:55 Clear 34 1.1 32 0 92 92 ESE 5 7 29.41 996 10 16.0934 0 0
7:15 pm 19:15 Clear 34 1.2 32 0 92 92 E 5 7 29.41 996 10 16.0934 0 0
7:35 pm 19:35 Clear 34 1.1 32 -0.1 92 92 ESE 3 6 29.41 996 10 16.0934 0 0
7:55 pm 19:55 Clear 34 0.9 32 -0.2 92 92 Calm 29.41 996 10 16.0934 0 0
8:15 pm 20:15 Partly Cloudy 33 0.7 31 -0.5 92 92 Calm 29.41 996 10 16.0934 0 0
8:35 pm 20:35 Mostly Cloudy 33 0.7 31 -0.3 93 93 Calm 29.41 996 10 16.0934 0 0
8:55 pm 20:55 Partly Cloudy 32 0.1 30 -0.9 93 93 NW 5 7 29.47 998 10 16.0934 0 0
9:15 pm 21:15 Clear 33 0.5 31 -0.4 94 94 NNW 6 9 29.41 996 10 16.0934 0 0
9:35 pm 21:35 Clear 33 0.4 31 -0.6 93 93 N 5 7 29.41 996 10 16.0934 0 0
9:55 pm 21:55 Clear 33 0.5 31 -0.3 94 94 Calm 29.41 996 10 16.0934 0 0
10:15 pm 22:15 Clear 33 0.4 31 -0.5 94 94 Calm 29.41 996 10 16.0934 0 0
10:35 pm 22:35 Clear 33 0.4 31 -0.5 94 94 NNE 6 9 29.41 996 10 16.0934 0 0
10:55 pm 22:55 Clear 33 0.5 32 -0.2 95 95 NNE 8 13 29.41 996 10 16.0934 0 0
11:15 pm 23:15 Clear 33 0.7 32 0 95 95 NNE 6 9 29.38 995 10 16.0934 0 0
11:35 pm 23:35 Clear 33 0.7 32 -0.1 94 94 NNE 5 7 29.38 995 10 16.0934 0 0
11:55 pm 23:55 Clear 33 0.7 32 -0.2 94 94 NNE 3 6 29.41 996 10 16.0934 0 0

Powered by AerisWeather